Location: Newark
(0.5300°S, 127.4800°E)
Time: 01:16:51
(UTC+00:00)

Transit 4A - Pass Details

Date: 29 September 2019
Orbit: 867 x 978 km, 66.8° (Epoch: 20 October)

Event Time Altitude Azimuth Distance (km) Brightness Sun altitude
Rises 11:56:54 0° 327° (NNW) 3,464 11.2 -39.0°
Reaches altitude 10° 11:59:31 10° 320° (NW) 2,517 10.5 -39.7°
Enters shadow 12:00:49 17° 314° (NW) 2,075 10.0 -40.0°
